Location: Gibsondale
(40.9931°N, 80.2478°W)
Time: 18:00:19
(UTC+00:00)

ERS-2 - Pass Details

Date: 29 October 2020
Orbit: 493 x 498 km, 98.6° (Epoch: 24 November)

Event Time Altitude Azimuth Distance (km) Brightness Sun altitude
Rises 23:31:14 0° 2° (N) 2,584 5.7 -14.0°
Reaches altitude 10° 23:33:28 10° 351° (N) 1,697 4.8 -14.4°
Maximum altitude 23:36:40 29° 290° (WNW) 924 4.1 -15.0°
Drops below altitude 10° 23:39:51 10° 229° (SW) 1,687 5.6 -15.6°
Sets 23:42:04 0° 218° (SW) 2,565 6.4 -16.0°
